{"data":{"norad_id":65044,"intl_designator":"2025-162B","name":"HULIANWANG DIGUI-41","alt_names":[],"object_type":"PAYLOAD","status":"ACTIVE","operator":null,"country":"PRC","launch_date":"2025-07-30","launch_site_code":"WSC","launch_vehicle":null,"mission":null,"orbit_class":"UNKNOWN","rcs_meters":null,"size_class":null,"mass_kg":null,"dimensions":null,"purposes":[],"wikipedia_slug":null,"has_3d_model":false,"image_url":null,"decayed_at":null,"tle_current":{"epoch":"2026-05-25T01:51:51.067296Z","epoch_age_seconds":64446,"freshness":"FRESH","line1":"1 65044U 25162B   26145.07767439 -.00000084  00000+0  86522-4 0  9995","line2":"2 65044  50.0020 348.7808 0000463  36.1694 323.9209 13.29323507 40285","mean_motion":13.29323507,"eccentricity":4.63e-5,"inclination_deg":50.002,"raan_deg":348.7808,"arg_perigee_deg":36.1694,"mean_anomaly_deg":323.9209,"bstar":8.6522e-5,"rev_number":4028,"period_min":108.32577566087,"perigee_km":1148.9674620393,"apogee_km":1149.6645041855,"semimajor_km":7527.4529831124,"source":"CELESTRAK","updated_at":"2026-05-25T13:38:05.086820Z"}}}